| time (UTC) | temp C | wind direction | speed KPH | gust KPH | rain 1hr cm | rain 24hr cm | rain mn cm | humidity % | barometer mb |
| 20260507191846 | 6 | 10 | 19.3 | 0.0 | 0.00 | 0.00 | 0.00 | 99 | |
| 20260507181745 | 6 | 360 | 32.2 | 0.0 | 0.00 | 0.00 | 0.00 | 99 | |
| 20260507171745 | 6 | 10 | 38.6 | 0.0 | 0.00 | 0.00 | 0.00 | 99 | |
| 20260507162046 | 7 | 10 | 22.5 | 0.0 | 0.00 | 0.00 | 0.00 | 99 | |
| 20260507151745 | 7 | 360 | 25.7 | 0.0 | 0.00 | 0.00 | 0.00 | 99 | |
| 20260507141745 | 7 | 310 | 22.5 | 0.0 | 0.00 | 0.00 | 0.00 | 99 | |
| 20260507131846 | 8 | 340 | 19.3 | 0.0 | 0.00 | 0.00 | 0.00 | 99 | |
| 20260507121745 | 12 | 250 | 22.5 | 38.6 | 0.00 | 0.00 | 0.00 | 87 | |
| 20260507111745 | 11 | 230 | 29.0 | 0.0 | 0.00 | 0.00 | 0.00 | 93 | |
| 20260507101945 | 11 | 230 | 29.0 | 0.0 | 0.00 | 0.00 | 0.00 | 99 | |
| 20260507091745 | 10 | 230 | 19.3 | 0.0 | 0.00 | 0.00 | 0.00 | 99 | |
| 20260507081745 | 8 | 270 | 14.5 | 0.0 | 0.00 | 0.00 | 0.00 | 99 | |
| 20260507071745 | 8 | 270 | 11.3 | 0.0 | 0.00 | 0.00 | 0.00 | 99 | |
| 20260507061745 | 8 | 310 | 8.0 | 0.0 | 0.00 | 0.00 | 0.00 | 99 | |
| 20260507051744 | 8 | 240 | 19.3 | 0.0 | 0.00 | 0.00 | 0.00 | 99 | |
| 20260507041947 | 8 | 0 | 0.0 | 0.0 | 0.00 | 0.00 | 0.00 | 99 | |
| 20260507031744 | 8 | 250 | 8.0 | 0.0 | 0.00 | 0.00 | 0.00 | 99 | |
| 20260507021743 | 8 | 230 | 11.3 | 0.0 | 0.00 | 0.00 | 0.00 | 99 | |
| 20260507011845 | 8 | 350 | 14.5 | 0.0 | 0.00 | 0.00 | 0.00 | 99 | |
| 20260507001745 | 10 | 250 | 22.5 | 0.0 | 0.00 | 0.00 | 0.00 | 99 | |
| 20260506231745 | 10 | 250 | 14.5 | 0.0 | 0.00 | 0.00 | 0.00 | 99 | |
| 20260506221945 | 10 | 240 | 25.7 | 0.0 | 0.00 | 0.00 | 0.00 | 99 | |
| 20260506211744 | 11 | 100 | 11.3 | 0.0 | 0.00 | 0.00 | 0.00 | 99 | |
| 20260506201802 | 12 | 60 | 19.3 | 0.0 | 0.00 | 0.00 | 0.00 | 87 |